RH
88 98 56 52 58 67 74 81 56 51 66 88 96 97 99 100 100 100 98 26 16 15 13 14 12 12 15 30 34 25 19 13 10 11 9 8 8 8 8 8 8 10 9
98 98 94 96 74 99 90 79 59 60 60 99 99 99 100 100 100 100 98 42 22 20 16 15 14 13 13 26 32 28 22 16 18 13 11 12 10 8 8 8 8 9 10
99 99 89 99 99 97 98 98 91 96 98 100 100 100 100 100 99 100 86 38 26 24 22 18 20 17 15 16 29 24 23 24 21 14 14 10 10 12 12 10 10 10 10
99 99 99 98 99 99 99 100 92 85 88 91 98 99 98 99 99 100 99 75 43 27 32 37 26 26 24 21 26 26 22 22 16 21 16 11 13 16 14 14 13 13 12
94 95 98 99 99 99 99 100 100 100 100 100 100 98 99 100 100 100 98 96 87 59 68 78 95 78 31 22 22 21 18 18 19 18 15 17 18 18 16 15 16 16 15
55 67 64 97 98 98 99 100 100 98 100 100 100 97 97 98 98 97 100 98 80 84 49 52 43 35 30 28 27 24 21 19 19 22 24 22 23 22 21 20 19 19 20
48 53 50 57 60 96 93 91 99 99 99 99 99 98 98 98 99 100 100 97 71 53 46 46 40 38 37 36 33 32 31 29 26 25 26 26 25 26 25 23 20 18 20
40 42 44 47 47 47 49 55 66 70 84 98 98 98 99 99 99 91 94 98 99 99 92 59 49 43 46 48 41 34 33 35 33 31 30 29 28 30 30 28 28 22 19
41 40 42 42 43 46 46 45 48 50 55 66 58 87 92 93 97 100 99 98 88 92 98 96 98 96 88 45 41 48 46 42 39 37 36 36 35 36 34 35 34 32 25
43 44 43 42 39 41 45 48 45 45 47 48 48 49 51 54 55 59 65 74 98 100 100 99 92 86 98 98 89 60 48 44 41 43 40 39 40 37 36 36 37 36 32
46 46 47 48 50 52 53 54 56 56 52 50 50 51 50 49 49 51 54 55 54 56 59 58 60 96 100 100 98 99 98 94 87 77 56 44 46 50 50 45 44 42 41
53 52 50 52 54 55 57 58 59 61 60 63 59 61 59 59 58 58 57 57 55 52 49 49 53 56 58 60 69 82 96 99 99 84 74 79 100 88 78 100 67 60 60
57 54 54 51 50 51 54 59 62 61 60 59 60 61 61 62 65 66 68 68 66 65 65 62 56 52 51 52 55 56 56 59 73 83 97 99 98 91 99 93 98 97 100
57 53 53 57 64 67 65 59 54 52 50 48 47 46 43 40 39 40 42 46 51 56 60 63 63 63 62 61 59 57 55 56 58 56 54 57 80 87 94 98 97 98 99
58 53 55 60 63 63 61 58 54 49 44 38 32 26 23 21 20 19 16 14 13 14 15 19 27 40 48 48 51 55 59 59 57 58 59 59 56 52 50 62 72 91 95
62 62 63 61 59 60 60 57 54 48 35 23 17 15 13 11 11 11 11 11 11 12 12 12 12 12 12 12 16 22 27 32 42 53 58 59 60 62 62 54 49 46 47
66 70 70 71 74 73 68 61 44 29 25 23 20 17 15 13 13 11 10 10 12 17 20 22 22 20 19 18 16 14 12 10 10 11 16 35 56 62 64 67 67 60 54
69 71 79 83 80 75 64 41 36 33 30 31 34 37 39 39 38 34 27 20 18 19 23 28 30 28 25 17 14 14 14 13 13 12 10 10 9 14 32 51 60 63 68
80 88 88 85 78 64 42 42 42 42 43 45 46 47 46 46 45 44 44 46 44 39 32 33 33 30 24 14 9 8 10 11 12 12 12 11 10 10 9 8 10 30 55
89 89 85 78 58 47 47 44 43 43 44 48 48 47 47 45 43 43 43 42 42 42 42 43 41 36 28 14 10 10 11 14 16 16 16 15 14 12 10 9 8 7 6
91 86 75 56 52 51 47 47 48 50 50 48 47 45 45 46 49 49 50 48 48 47 47 46 45 42 42 35 22 21 19 19 20 20 19 16 13 11 10 10 9 9 8
85 70 62 60 56 55 53 54 53 52 50 49 48 50 52 52 50 47 44 40 37 37 40 44 45 32 25 22 23 22 18 17 15 16 16 14 10 8 7 7 7 7 8
66 60 60 61 58 57 55 54 52 50 47 47 51 54 50 46 43 38 34 30 24 22 20 20 24 27 23 21 19 17 15 14 14 13 13 11 9 8 7 6 6 8 8
61 61 59 59 56 56 56 56 54 50 47 48 49 45 42 37 30 24 19 17 18 19 19 17 16 14 14 14 15 15 14 14 13 12 10 9 8 8 8 8 7 9 15
55 58 57 52 51 54 54 56 54 50 47 44 40 32 24 19 17 20 25 28 37 41 40 40 38 32 26 30 33 28 23 20 20 29 13 7 7 8 12 13 11 21 46
49 53 54 51 52 52 51 54 49 43 38 30 23 21 21 27 35 40 42 50 45 48 56 56 54 51 53 48 43 44 59 71 80 75 66 43 38 29 22 23 39 69 81
Wind_Speed
6 5 8 12 13 16 23 21 26 30 30 21 40 41 38 28 30 26 27 26 27 27 27 28 30 31 31 31 30 29 27 27 27 27 28 27 25 25 24 24 21 21 22
7 7 7 2 5 8 13 15 18 24 27 21 34 30 40 31 31 28 29 29 29 28 28 29 31 32 32 34 35 33 32 30 29 29 27 28 28 27 28 25 24 24 24
7 7 3 6 6 2 10 12 15 16 16 20 27 31 29 26 23 21 26 27 28 27 26 28 29 32 33 34 35 31 32 32 32 30 32 30 30 27 29 28 27 28 28
20 10 10 5 10 15 21 13 15 14 22 15 24 24 21 23 22 18 22 23 24 25 24 24 26 28 31 32 30 33 35 35 33 34 34 33 30 30 31 31 30 31 30
32 30 25 14 11 10 16 15 13 13 17 17 13 14 16 15 24 33 32 18 18 24 25 28 33 34 32 32 33 34 34 34 35 35 34 34 32 33 34 33 30 33 31
21 22 25 19 19 24 22 12 16 15 6 6 8 9 7 6 8 9 32 44 23 24 25 27 29 29 30 31 31 32 35 35 35 35 34 35 34 34 35 34 32 33 33
17 17 16 14 16 20 20 19 14 8 6 1 7 7 11 8 6 5 8 27 23 13 18 22 25 27 29 30 32 33 34 35 36 36 36 35 36 36 36 38 36 38 36
11 11 12 13 15 13 12 12 10 10 6 7 5 2 3 6 8 7 10 12 11 3 24 34 21 23 27 28 32 35 36 36 36 36 37 37 37 38 38 39 39 42 41
7 8 9 9 9 9 8 7 7 6 6 5 2 5 6 6 6 9 13 15 13 17 19 17 15 25 43 34 34 33 33 35 36 37 38 38 38 39 39 40 41 41 44
7 8 8 6 6 6 5 3 2 3 4 3 2 3 5 6 7 10 14 14 17 19 25 21 22 21 23 25 41 45 38 38 39 39 39 39 38 39 39 41 41 42 46
8 10 10 9 8 8 8 9 9 8 7 9 9 11 12 13 13 14 14 15 17 18 19 20 20 27 29 31 30 32 38 50 48 47 46 43 41 40 41 41 43 43 45
11 12 11 11 11 12 11 12 13 13 14 14 16 18 19 20 21 22 23 24 24 24 25 25 24 24 25 27 31 33 38 34 44 48 48 46 40 42 42 41 47 46 45
14 13 13 14 16 17 17 16 16 17 19 20 22 22 23 25 27 28 29 31 31 32 33 33 33 33 33 32 34 35 34 35 38 41 43 45 49 54 48 50 48 44 47
19 18 19 18 17 17 18 19 22 25 27 30 33 35 36 36 35 35 36 36 37 38 39 40 41 42 42 42 43 43 43 42 42 41 40 40 43 45 50 55 59 55 51
19 20 21 21 20 21 24 29 33 37 40 41 41 42 43 44 44 45 45 44 43 43 43 44 45 47 48 48 50 51 52 51 51 50 49 48 46 44 44 45 47 52 57
21 22 23 23 25 29 33 37 40 42 43 42 41 41 41 43 44 45 45 45 45 45 44 43 42 42 44 47 51 54 56 57 60 60 59 58 56 54 52 50 48 47 48
23 24 23 25 29 33 37 41 41 39 37 36 37 37 37 38 39 41 44 46 46 44 43 43 43 42 41 41 42 45 49 52 54 57 61 64 64 64 63 60 58 55 52
24 25 29 32 36 39 42 39 37 37 37 35 33 32 31 31 31 32 35 39 43 46 47 45 45 45 42 40 41 42 45 47 47 48 50 53 54 59 66 69 68 65 62
27 30 34 38 42 42 40 39 37 36 34 33 32 32 32 32 32 33 35 37 38 40 43 45 45 44 41 39 41 42 43 44 45 47 48 49 49 48 50 56 63 70 72
33 36 41 42 41 40 39 38 37 36 35 32 31 31 32 33 34 35 36 36 38 39 40 42 45 47 45 41 40 41 43 44 44 44 47 47 50 50 48 49 51 58 62
38 38 37 39 38 38 37 36 35 34 33 32 32 32 34 35 35 34 35 36 36 37 39 41 42 43 45 46 45 43 44 46 47 48 48 48 48 49 51 52 52 53 54
35 35 34 34 35 35 34 32 32 32 32 32 32 33 34 35 36 37 36 36 37 37 37 38 38 39 41 42 43 44 46 48 50 52 52 51 50 50 50 51 52 52 52
33 34 32 30 31 32 32 31 31 32 32 33 33 33 34 35 37 39 39 39 39 40 40 39 39 38 40 42 43 44 45 47 48 50 53 54 54 52 51 50 50 50 51
32 31 31 29 28 30 30 32 32 33 33 33 34 35 37 38 39 40 41 41 41 41 41 41 41 41 41 41 42 43 44 44 45 47 49 50 50 51 53 51 49 49 50
30 30 30 29 29 30 31 32 34 35 36 36 37 38 39 40 40 40 40 40 39 39 40 39 40 40 40 39 38 39 40 40 41 43 45 47 49 52 52 49 51 53 51
31 30 30 30 30 31 31 33 35 37 38 39 40 40 41 40 39 39 38 36 36 35 35 35 37 36 36 36 36 36 36 37 37 40 42 45 47 50 52 54 51 45 45
Wind_Direction
342 297 243 266 267 267 229 212 213 219 226 243 219 232 224 227 237 235 233 231 229 227 224 222 223 219 219 221 226 234 235 236 236 233 238 239 242 247 249 249 243 241 245
288 269 271 266 284 230 181 200 208 205 223 237 217 224 216 228 225 219 227 229 228 226 225 223 223 225 222 220 226 228 234 236 236 240 237 241 245 247 252 254 256 254 247
155 130 312 216 133 150 165 167 170 202 229 208 218 217 206 199 216 231 227 228 232 230 226 224 222 224 226 226 229 231 238 240 242 244 245 240 244 248 251 254 254 256 257
60 99 143 185 189 135 132 175 183 189 212 229 187 187 195 219 222 216 231 231 231 232 228 228 224 217 224 228 231 234 235 240 244 247 247 250 248 247 247 250 253 256 256
35 42 62 97 103 149 102 157 175 173 212 221 218 218 230 259 252 239 236 220 226 228 223 232 215 221 223 225 226 230 236 239 242 246 249 251 253 251 253 252 255 261 263
44 38 34 45 65 71 75 108 152 186 212 231 239 224 263 50 29 283 252 238 220 231 227 227 228 227 229 230 232 234 237 239 240 243 246 251 254 256 258 258 255 256 256
38 41 46 47 40 47 45 50 77 111 107 148 256 272 297 299 321 8 308 250 225 230 240 238 237 235 234 236 237 237 237 239 241 243 245 247 251 255 256 257 257 256 255
33 37 41 40 47 52 53 56 65 55 69 100 90 17 300 321 341 342 338 319 301 308 244 243 244 246 247 244 245 246 245 243 244 244 246 248 248 251 253 256 259 260 258
6 20 23 28 31 44 48 52 48 39 51 81 53 287 305 314 322 279 266 293 304 307 303 283 243 252 253 246 242 244 248 252 252 251 251 251 251 252 255 257 258 262 262
329 337 346 352 355 354 4 38 33 3 336 359 328 298 293 281 266 264 262 261 259 269 277 277 280 285 274 268 252 247 241 242 245 249 252 253 255 256 255 256 257 258 263
313 316 318 321 322 323 329 329 327 319 307 300 292 287 283 283 280 276 271 269 268 265 263 266 269 259 267 272 271 267 263 253 253 255 258 256 254 250 255 256 256 255 256
315 314 316 317 318 316 311 306 305 305 302 296 294 294 291 286 283 282 277 273 270 268 267 271 271 269 269 269 270 268 263 253 259 255 256 259 250 260 255 260 259 257 261
320 313 312 313 313 312 311 310 307 302 298 297 294 289 285 284 282 281 279 277 277 277 275 272 269 267 266 265 266 267 268 267 266 264 255 255 254 253 248 251 260 253 258
311 311 312 312 311 310 308 305 302 301 300 300 300 298 295 292 287 283 280 278 276 274 272 272 272 272 271 268 266 265 265 265 266 267 268 267 266 263 260 261 252 254 256
298 301 302 300 299 301 307 310 310 308 306 304 302 299 297 294 291 289 288 286 283 279 274 271 268 267 266 265 264 265 265 265 264 264 265 265 265 266 265 265 266 262 264
293 296 294 294 299 303 305 305 306 306 305 302 298 294 290 287 289 289 289 288 287 285 284 280 276 270 267 265 264 264 262 261 262 262 262 262 262 262 263 264 265 264 264
291 290 288 290 296 301 304 307 306 305 302 300 299 295 291 287 283 282 280 281 282 283 283 284 283 281 278 276 273 270 268 267 266 264 262 259 258 259 259 258 259 261 262
284 285 290 297 303 306 307 306 305 304 304 304 302 299 295 291 287 280 274 271 272 275 278 280 282 282 283 280 276 273 272 272 271 270 269 267 263 260 259 258 257 256 256
288 293 298 301 303 304 306 306 307 307 306 306 304 302 300 297 293 289 286 284 281 278 277 280 283 285 285 281 278 275 272 269 269 269 269 270 269 267 264 263 261 256 254
294 297 299 301 303 305 305 306 305 305 306 305 304 302 301 301 300 298 295 292 290 288 285 283 282 283 286 287 282 278 275 274 274 274 274 273 273 272 271 267 266 263 258
294 296 297 299 300 301 302 303 303 303 305 305 305 304 303 302 302 302 301 299 296 294 291 288 286 286 285 285 286 284 282 281 279 278 277 276 276 275 274 273 271 268 268
293 295 296 298 299 300 300 301 301 303 304 305 304 303 304 304 305 304 304 302 301 298 295 293 289 288 287 286 284 284 286 288 289 287 284 281 279 277 276 274 273 272 269
293 294 296 297 298 298 299 301 302 302 304 304 304 304 305 304 304 304 303 302 300 299 297 294 291 287 286 285 285 284 283 282 281 280 281 283 283 279 279 276 273 271 269
294 295 296 298 298 297 299 300 300 301 303 304 305 304 304 303 303 302 302 301 300 299 297 295 293 290 286 285 284 283 282 279 278 277 275 274 274 276 281 281 278 273 269
293 294 296 297 296 296 298 299 300 302 303 305 304 303 302 302 301 300 300 299 300 301 301 301 299 297 294 294 293 292 291 289 287 287 282 278 279 281 283 281 278 275 273
293 294 297 298 298 299 300 299 300 301 302 302 301 301 301 301 301 300 299 299 299 300 300 299 297 297 296 296 295 295 294 293 294 292 290 287 286 284 281 278 277 270 268